DELTA 1 DEB

Satellite information

Favourite Embed

Satellite Type and Status

DEBRISIN ORBIT

Key statistics

Satellite DELTA 1 DEB at a glance.

Uptime

18873

Days in orbit

Revolutions

≈ 12.2

Per day

Orbit

SSO

Sun Synchronous Orbit

Inclination

102.7

Latest

Satellite identification and parameters

Extended collection of information and parameters for DELTA 1 DEB.

Object identification

Identified? True

Debris? True

Object name: DELTA 1 DEB

International designator: 1973-086DR

Object number (NORAD): 7151

Object ID (CCSDS): 7151

Country: UNITED STATES OF AMERICA (US)

Current information (Y/N): Y

RCS size: SMALL

Orbital parameters

Period: 118.247 minutes

Inclination: 102.7418 deg

SMA: 7980.319 km

Apoapsis: 1724.338 km

Periapsis: 1480.03 km

RAAN: 313.3322 deg

Eccentricy: 0.0153069

Argument of periapsis: 326.5786 deg

Mean anomaly: 189.3887 deg

Mean motion: 12.17789907 rev/day

Mean motion (dot): 0.00000077 rev/day2

B* drag term: 0.0011792 1/REarth

Two-line elements (TLE)

Creation date: July 8, 2025, 2:27 a.m.

Reference frame: TEME

Reference center: EARTH

Epoch: July 7, 2025, 7:45 p.m. UTC

TLE line 0: 0 DELTA 1 DEB

TLE line 1: 1 07151U 73086DR 25188.82330844 .00000077 00000-0 11792-2 0 9990

TLE line 2: 2 07151 102.7418 313.3322 0153069 326.5786 189.3887 12.17789907292454

Live tracking on map

Real-time ground track for satellite DELTA 1 DEB.

In-orbit conjunctions

A list of the most updated potential collisions computed for object DELTA 1 DEB.

Target Orbit TCA Probability of collision Miss distance Type
COSMOS 567 LEO 2025-01-23 17:23:02 0.0003615591 239.0 (m) PAYLOAD
COSMOS 2014 LEO 2024-07-08 01:55:39 0.0001719136 87.0 (m) PAYLOAD

Associated space launch

Meteorological satellite using radiometric imaging

DELTA 1 DEB was lifted into orbit during the mission ‘Delta 0300 | NOAA 3’, on board a Delta 0300 space rocket.

The launch took place on Nov. 6, 1973, 5:02 p.m. from Space Launch Complex 2W.

For more information about the launch, click the button.

Launch to space Delta 0300 | NOAA 3
Delta 0300 | NOAA 3

Agency: N/A

Status: Launch Successful

Launch date: Nov. 6, 1973, 5:02 p.m. UTC

Rocket: Delta 0300

Launch pad: Space Launch Complex 2W

Location: Vandenberg SFB, CA, USA

...

Latest news about this satellite

There are no fresh news available about this satellite. Check back as we update our databases every day.


Newsletter sign-up

Weekly statistics, charts and insights to help you stay on top of the space industry.